Change the Weather History Date:

Monday, October 8, 2012

  Actual Average (KTVC) Record (KTVC)
Temperature  
Mean Temperature 49 °F 51 °F  
Max Temperature 59 °F 60 °F 88 °F (2007)
Min Temperature 39 °F 42 °F 29 °F (1989)
Degree Days  
Heating Degree Days 16 14  
Month to date heating degree days 104  
Since 1 July heating degree days 366  
Cooling Degree Days 0 0  
Month to date cooling degree days 0  
Year to date cooling degree days 407  
Moisture  
Dew Point 30 °F    
Average Humidity 44    
Maximum Humidity 66    
Minimum Humidity 33    
Precipitation  
Precipitation 0.00 in 0.10 in 0.80 in (1933)
Month to date precipitation 0.85  
Year to date precipitation 25.49  
Sea Level Pressure  
Sea Level Pressure 30.00 in    
Wind  
Wind Speed 10 mph (SSW)    
Max Wind Speed 21 mph    
Max Gust Speed 33 mph    
Visibility 10 miles    
Events      
T = Trace of Precipitation, MM = Missing Value Source: NWS Daily Summary

Daily Weather History Graph

Daily Weather History Graph

Search for Another Location

Airport or City:

Trip Planner

Search our weather history database for the weather conditions in past years. The results will help you decide how hot, cold, wet, or windy it might be!

Date:

Astronomy

Oct. 08, 2012 Rise Set
Actual Time 7:51 AM EDT 7:11 PM EDT
Civil Twilight 7:22 AM EDT 7:40 PM EDT
Nautical Twilight 6:48 AM EDT 8:14 PM EDT
Astronomical Twilight 6:14 AM EDT 8:48 PM EDT
Moon 12:15 AM EDT (10/8) 3:15 PM EDT (10/8)
Length of Visible Light 12h 18m
Length of Day
11h 19m
Waning Gibbous, 46% of the Moon is Illuminated
Oct 8
Waning Gibbous
Oct 15
New
Oct 21
First Quarter
Oct 29
Full
Nov 6
Last Quarter

Hourly Weather History & Observations

Time (EDT) Temp. Windchill Dew Point Humidity Pressure Visibility Wind Dir Wind Speed Gust Speed Precip Events Conditions
12:14 AM 50.0 °F - 25.5 °F 39% 30.05 in 10.0 mi WSW 6.9 mph - N/A   Mostly Cloudy
12:34 AM 50.2 °F - 24.4 °F 37% 30.05 in 10.0 mi West 9.2 mph 16.1 mph N/A   Overcast
12:55 AM 50.4 °F - 23.7 °F 35% 30.04 in 10.0 mi WSW 4.6 mph - N/A   Mostly Cloudy
1:15 AM 50.7 °F - 23.9 °F 35% 30.04 in 10.0 mi West 8.1 mph 16.1 mph N/A   Mostly Cloudy
1:35 AM 50.5 °F - 22.5 °F 33% 30.04 in 10.0 mi WSW 11.5 mph 18.4 mph N/A   Mostly Cloudy
1:55 AM 51.1 °F - 22.6 °F 33% 30.04 in 10.0 mi WSW 8.1 mph 18.4 mph N/A   Mostly Cloudy
2:15 AM 50.9 °F - 23.9 °F 35% 30.04 in 10.0 mi WSW 6.9 mph 17.3 mph N/A   Overcast
2:32 AM 50.9 °F - 24.6 °F 36% 30.04 in 10.0 mi WSW 9.2 mph 16.1 mph N/A   Overcast
2:52 AM 51.1 °F - 23.2 °F 34% 30.04 in 10.0 mi WSW 8.1 mph 17.3 mph N/A   Mostly Cloudy
3:12 AM 50.9 °F - 23.5 °F 34% 30.04 in 10.0 mi WSW 10.4 mph 17.3 mph N/A   Mostly Cloudy
3:32 AM 50.9 °F - 24.1 °F 35% 30.03 in 10.0 mi WSW 10.4 mph 18.4 mph N/A   Mostly Cloudy
3:52 AM 50.9 °F - 24.6 °F 36% 30.03 in 10.0 mi WSW 5.8 mph 16.1 mph N/A   Overcast
4:13 AM 50.5 °F - 23.0 °F 34% 30.03 in 10.0 mi West 10.4 mph 19.6 mph N/A   Overcast
4:33 AM 50.2 °F - 22.3 °F 34% 30.03 in 10.0 mi WSW 8.1 mph - N/A   Mostly Cloudy
4:53 AM 50.0 °F - 23.0 °F 35% 30.03 in 10.0 mi WSW 9.2 mph - N/A   Scattered Clouds
5:13 AM 50.0 °F - 23.0 °F 35% 30.03 in 10.0 mi WSW 6.9 mph 16.1 mph N/A   Clear
5:33 AM 50.2 °F - 23.9 °F 36% 30.03 in 10.0 mi WSW 6.9 mph 17.3 mph N/A   Scattered Clouds
5:53 AM 50.0 °F - 24.4 °F 37% 30.03 in 10.0 mi West 5.8 mph - N/A   Clear
6:13 AM 50.0 °F - 24.3 °F 37% 30.03 in 10.0 mi WSW 5.8 mph - N/A   Clear
6:33 AM 46.6 °F - 26.4 °F 45% 30.04 in 10.0 mi SE 6.9 mph - N/A   Clear
6:54 AM 43.5 °F 38.9 °F 28.2 °F 55% 30.04 in 10.0 mi SE 8.1 mph - N/A   Clear
7:14 AM 42.3 °F 37.9 °F 28.4 °F 58% 30.04 in 10.0 mi SE 6.9 mph - N/A   Clear
7:34 AM 40.6 °F 35.4 °F 28.6 °F 62% 30.04 in 10.0 mi SE 8.1 mph - N/A   Clear
7:54 AM 39.7 °F 34.9 °F 28.8 °F 65% 30.04 in 10.0 mi SE 6.9 mph - N/A   Clear
8:14 AM 39.4 °F 36.1 °F 28.8 °F 66% 30.05 in 10.0 mi ESE 4.6 mph - N/A   Clear
8:34 AM 39.7 °F 37.6 °F 29.1 °F 66% 30.05 in 10.0 mi ESE 3.5 mph - N/A   Clear
8:54 AM 40.8 °F 36.9 °F 29.3 °F 64% 30.05 in 10.0 mi ESE 5.8 mph - N/A   Clear
9:14 AM 42.1 °F 39.2 °F 29.7 °F 61% 30.05 in 10.0 mi ESE 4.6 mph - N/A   Clear
9:35 AM 45.1 °F 42.0 °F 30.6 °F 57% 30.05 in 10.0 mi SSE 5.8 mph - N/A   Clear
9:55 AM 46.8 °F - 31.3 °F 55% 30.05 in 10.0 mi SE 8.1 mph - N/A   Clear
10:15 AM 48.6 °F - 32.0 °F 53% 30.04 in 10.0 mi SSE 8.1 mph - N/A   Clear
10:35 AM 51.8 °F - 32.2 °F 47% 30.04 in 10.0 mi SSE 10.4 mph - N/A   Clear
10:55 AM 53.2 °F - 33.3 °F 47% 30.03 in 10.0 mi SSE 10.4 mph - N/A   Scattered Clouds
11:15 AM 54.3 °F - 35.2 °F 49% 30.03 in 10.0 mi South 15.0 mph 20.7 mph N/A   Scattered Clouds
11:35 AM 55.2 °F - 36.9 °F 50% 30.02 in 10.0 mi SSW 15.0 mph 25.3 mph N/A   Mostly Cloudy
11:55 AM 56.3 °F - 36.1 °F 47% 30.02 in 10.0 mi SSW 11.5 mph 27.6 mph N/A   Scattered Clouds
12:15 PM 56.8 °F - 35.6 °F 45% 30.02 in 10.0 mi SSW 16.1 mph 25.3 mph N/A   Clear
12:36 PM 57.4 °F - 35.6 °F 44% 30.02 in 10.0 mi SSW 19.6 mph 27.6 mph N/A   Scattered Clouds
12:51 PM 57.6 °F - 33.6 °F 41% 30.02 in 10.0 mi SSW 18.4 mph 25.3 mph N/A   Scattered Clouds
1:11 PM 57.7 °F - 33.1 °F 39% 30.02 in 10.0 mi SSW 20.7 mph 33.4 mph N/A   Scattered Clouds
1:31 PM 57.9 °F - 32.2 °F 38% 30.01 in 10.0 mi SSW 16.1 mph 32.2 mph N/A   Scattered Clouds
1:51 PM 58.3 °F - 34.3 °F 41% 30.01 in 10.0 mi South 18.4 mph 31.1 mph N/A   Scattered Clouds
2:11 PM 58.1 °F - 34.3 °F 41% 30.00 in 10.0 mi SSW 20.7 mph 28.8 mph N/A   Scattered Clouds
2:31 PM 58.5 °F - 35.2 °F 42% 29.98 in 10.0 mi SSW 20.7 mph 29.9 mph N/A   Scattered Clouds
2:51 PM 58.3 °F - 35.4 °F 42% 29.97 in 10.0 mi SSW 18.4 mph 32.2 mph N/A   Clear
3:11 PM 58.6 °F - 35.2 °F 42% 29.97 in 10.0 mi South 20.7 mph 28.8 mph N/A   Clear
3:32 PM 59.0 °F - 33.8 °F 39% 29.96 in 10.0 mi South 19.6 mph 28.8 mph N/A   Clear
4:12 PM 58.3 °F - 32.5 °F 38% 29.95 in 10.0 mi South 15.0 mph 28.8 mph N/A   Scattered Clouds
4:32 PM 57.9 °F - 33.1 °F 39% 29.95 in 10.0 mi SW 17.3 mph 31.1 mph N/A   Mostly Cloudy
4:52 PM 58.1 °F - 33.4 °F 39% 29.94 in 10.0 mi SSW 19.6 mph 29.9 mph N/A   Scattered Clouds
5:12 PM 56.8 °F - 32.5 °F 40% 29.93 in 10.0 mi SSW 20.7 mph 29.9 mph N/A   Scattered Clouds
5:32 PM 56.5 °F - 32.2 °F 40% 29.93 in 10.0 mi South 15.0 mph 25.3 mph N/A   Clear
5:52 PM 56.3 °F - 32.0 °F 40% 29.93 in 10.0 mi South 16.1 mph 27.6 mph N/A   Scattered Clouds
6:12 PM 56.3 °F - 32.0 °F 40% 29.93 in 10.0 mi South 17.3 mph 26.5 mph N/A   Mostly Cloudy
6:33 PM 55.8 °F - 32.0 °F 41% 29.93 in 10.0 mi South 15.0 mph 24.2 mph N/A   Overcast
6:53 PM 55.4 °F - 32.0 °F 41% 29.93 in 10.0 mi South 16.1 mph 21.9 mph N/A   Overcast
7:13 PM 55.4 °F - 32.5 °F 42% 29.93 in 10.0 mi South 15.0 mph 23.0 mph N/A   Overcast
7:33 PM 55.0 °F - 32.9 °F 43% 29.93 in 10.0 mi South 16.1 mph 23.0 mph N/A   Overcast
7:53 PM 54.9 °F - 33.1 °F 44% 29.93 in 10.0 mi South 12.7 mph 25.3 mph N/A   Overcast
8:33 PM 54.5 °F - 33.8 °F 46% 29.92 in 10.0 mi South 13.8 mph 25.3 mph N/A   Overcast
8:53 PM 54.5 °F - 33.8 °F 46% 29.91 in 10.0 mi South 18.4 mph 24.2 mph N/A   Overcast
9:13 PM 54.3 °F - 34.2 °F 47% 29.91 in 10.0 mi South 15.0 mph 23.0 mph N/A   Overcast
9:54 PM 54.0 °F - 34.2 °F 47% 29.91 in 10.0 mi SSE 13.8 mph 23.0 mph N/A   Scattered Clouds
10:14 PM 53.8 °F - 34.7 °F 48% 29.90 in 10.0 mi SSE 13.8 mph 20.7 mph N/A   Scattered Clouds
10:34 PM 54.0 °F - 34.7 °F 48% 29.91 in 10.0 mi South 11.5 mph 20.7 mph N/A   Scattered Clouds
10:54 PM 54.0 °F - 34.9 °F 49% 29.91 in 10.0 mi SSE 10.4 mph 18.4 mph N/A   Scattered Clouds
11:14 PM 53.6 °F - 34.7 °F 49% 29.92 in 10.0 mi South 12.7 mph 19.6 mph N/A   Scattered Clouds
11:34 PM 53.2 °F - 34.9 °F 50% 29.92 in 10.0 mi SSE 10.4 mph 16.1 mph N/A   Mostly Cloudy
11:54 PM 53.2 °F - 35.2 °F 51% 29.91 in 10.0 mi SSE 10.4 mph - N/A   Mostly Cloudy